ANA232 EDDF-RJAA

Flight info

Callsign ANA232
Flight time N/A
Altitude 31000
Route SULUS7S/18 SULUS Z650 VEMUT DCT PEPIK DCT ERGOM DCT DINRO/N0489F330 N743 UDROS UM859 KARDE UL851 TBN UN61 NOLGA N61 LAGAS M747 SUBUT T916 LEYLA N161 GASBI/K0913F330 N161 ABURA/K0896F350 N161 SARIN/K0896S1070 A368 FKG W188 LIKMI W270 DKO W69 TOREL/K0911S1130 W69 HUR B339 LADIX W34 VAPGU W100 ORAVA W201 UNSEK A326 DONVO G597 AGAVO/N0486F370 Y644 EGOBA Y697 LANAT Y51 SAMON Y517 ESKAS Y303 ENTAK/N0483F380 Y30 SWAMP
Aircraft B77W/H-SDE1E2E3FGHIJ2J3J4J5M1RWXY/LB1D1

Departure

Time 2026-05-06 09:21
Airport Frankfurt Main Airport (EDDF)

Arrival

Time N/A
Airport Narita International Airport (RJAA)
Time Latitude Longitude Altitude Speed Heading
2026-05-06 08:44 50.04666 8.56045 378 ft 0 kts 340°
2026-05-06 09:06 50.04665 8.56045 378 ft 1 kts 340°
2026-05-06 09:06 50.04651 8.56053 378 ft 2 kts 340°
2026-05-06 09:07 50.04637 8.56061 378 ft 2 kts 340°
2026-05-06 09:07 50.04628 8.56066 378 ft 2 kts 338°
2026-05-06 09:07 50.04615 8.56078 378 ft 2 kts 317°
2026-05-06 09:07 50.04606 8.56096 378 ft 2 kts 300°
2026-05-06 09:08 50.04600 8.56117 378 ft 2 kts 284°
2026-05-06 09:08 50.04598 8.56140 378 ft 2 kts 267°
2026-05-06 09:08 50.04600 8.56161 378 ft 1 kts 251°
2026-05-06 09:08 50.04601 8.56167 378 ft 0 kts 249°
2026-05-06 09:09 50.04601 8.56166 378 ft 0 kts 249°
2026-05-06 09:10 50.04601 8.56164 378 ft 1 kts 249°
2026-05-06 09:10 50.04585 8.56101 378 ft 10 kts 249°
2026-05-06 09:10 50.04549 8.55982 378 ft 11 kts 227°
2026-05-06 09:11 50.04486 8.55938 378 ft 7 kts 197°
2026-05-06 09:11 50.04439 8.55916 378 ft 6 kts 196°
2026-05-06 09:11 50.04402 8.55907 378 ft 4 kts 178°
2026-05-06 09:11 50.04376 8.55912 378 ft 2 kts 167°
2026-05-06 09:12 50.04362 8.55919 378 ft 1 kts 163°
2026-05-06 09:12 50.04357 8.55921 378 ft 0 kts 162°
2026-05-06 09:12 50.04339 8.55931 378 ft 6 kts 160°
2026-05-06 09:12 50.04277 8.55955 378 ft 12 kts 187°
2026-05-06 09:13 50.04213 8.55834 378 ft 19 kts 252°
2026-05-06 09:13 50.04150 8.55577 378 ft 29 kts 249°
2026-05-06 09:13 50.04082 8.55292 378 ft 26 kts 250°
2026-05-06 09:13 50.04023 8.55042 378 ft 22 kts 250°
2026-05-06 09:14 50.03976 8.54827 378 ft 19 kts 252°
2026-05-06 09:14 50.03930 8.54641 378 ft 18 kts 249°
2026-05-06 09:14 50.03884 8.54456 378 ft 18 kts 250°
2026-05-06 09:14 50.03820 8.54283 378 ft 18 kts 238°
2026-05-06 09:15 50.03769 8.54099 378 ft 18 kts 250°
2026-05-06 09:15 50.03717 8.53883 378 ft 24 kts 251°
2026-05-06 09:15 50.03655 8.53615 378 ft 26 kts 250°
2026-05-06 09:15 50.03595 8.53367 378 ft 22 kts 249°
2026-05-06 09:16 50.03542 8.53154 378 ft 19 kts 249°
2026-05-06 09:16 50.03500 8.52987 378 ft 14 kts 248°
2026-05-06 09:16 50.03467 8.52856 378 ft 10 kts 248°
2026-05-06 09:16 50.03440 8.52759 378 ft 7 kts 247°
2026-05-06 09:17 50.03434 8.52734 378 ft 0 kts 249°
2026-05-06 09:17 50.03418 8.52673 378 ft 9 kts 248°
2026-05-06 09:18 50.03385 8.52599 378 ft 7 kts 197°
2026-05-06 09:18 50.03343 8.52593 378 ft 4 kts 182°
2026-05-06 09:18 50.03317 8.52591 378 ft 2 kts 182°
2026-05-06 09:18 50.03313 8.52591 378 ft 0 kts 180°
2026-05-06 09:20 50.03235 8.52592 378 ft 37 kts 180°
2026-05-06 09:20 50.02748 8.52598 378 ft 100 kts 180°
2026-05-06 09:20 50.01854 8.52605 378 ft 156 kts 180°
2026-05-06 09:20 50.00618 8.52625 518 ft 188 kts 179°
2026-05-06 09:21 49.99294 8.52704 1036 ft 198 kts 179°
2026-05-06 09:21 49.97904 8.52799 1748 ft 202 kts 175°
2026-05-06 09:21 49.96491 8.53440 2037 ft 223 kts 154°
2026-05-06 09:21 49.95282 8.54974 2519 ft 233 kts 129°
2026-05-06 09:22 49.94571 8.57293 3040 ft 243 kts 107°
2026-05-06 09:22 49.94185 8.59915 3369 ft 261 kts 99°
2026-05-06 09:22 49.93999 8.62800 3799 ft 275 kts 96°
2026-05-06 09:22 49.93869 8.65800 4469 ft 279 kts 95°
2026-05-06 09:23 49.93431 8.68704 5056 ft 281 kts 120°
2026-05-06 09:23 49.92242 8.71038 5676 ft 279 kts 142°
2026-05-06 09:23 49.90722 8.72889 6382 ft 279 kts 147°
2026-05-06 09:23 49.89162 8.74662 7051 ft 282 kts 141°
2026-05-06 09:24 49.87899 8.77053 7696 ft 288 kts 125°
2026-05-06 09:24 49.87230 8.78823 8122 ft 291 kts 119°
2026-05-06 09:24 49.86721 8.82946 8874 ft 303 kts 85°
2026-05-06 09:24 49.87060 8.86177 9517 ft 305 kts 81°
2026-05-06 09:25 49.87476 8.89399 10024 ft 312 kts 81°
2026-05-06 09:25 49.87893 8.92790 10280 ft 328 kts 82°
2026-05-06 09:25 49.88318 8.96368 10553 ft 344 kts 82°
2026-05-06 09:25 49.88748 9.00052 10867 ft 358 kts 82°
2026-05-06 09:26 49.89199 9.03936 11161 ft 374 kts 82°
2026-05-06 09:26 49.89664 9.07942 11481 ft 388 kts 82°
2026-05-06 09:26 49.90146 9.12121 11840 ft 400 kts 82°
2026-05-06 09:26 49.90644 9.16420 12348 ft 408 kts 81°
2026-05-06 09:27 49.91145 9.20769 13009 ft 412 kts 82°
2026-05-06 09:27 49.91646 9.25137 13628 ft 416 kts 82°
2026-05-06 09:27 49.92153 9.29579 14315 ft 418 kts 82°
2026-05-06 09:27 49.92655 9.33989 14995 ft 420 kts 82°
2026-05-06 09:28 49.93159 9.38438 15684 ft 422 kts 82°
2026-05-06 09:28 49.93666 9.42943 16319 ft 424 kts 81°
2026-05-06 09:28 49.94167 9.47407 16953 ft 427 kts 81°
2026-05-06 09:28 49.94677 9.51965 17567 ft 429 kts 81°
2026-05-06 09:29 49.95185 9.56523 18159 ft 432 kts 81°
2026-05-06 09:29 49.95699 9.61149 18743 ft 435 kts 81°
2026-05-06 09:29 49.96208 9.65747 19261 ft 439 kts 81°
2026-05-06 09:29 49.96725 9.70434 19818 ft 442 kts 82°
2026-05-06 09:30 49.97245 9.75162 20310 ft 447 kts 82°
2026-05-06 09:30 49.97767 9.79927 20811 ft 450 kts 82°
2026-05-06 09:30 49.98289 9.84720 21396 ft 452 kts 82°
2026-05-06 09:30 49.98809 9.89508 21892 ft 455 kts 82°
2026-05-06 09:31 49.99338 9.94393 22349 ft 459 kts 82°
2026-05-06 09:31 49.99866 9.99293 22790 ft 463 kts 82°
2026-05-06 09:31 50.00397 10.04252 23281 ft 466 kts 82°
2026-05-06 09:31 50.00927 10.09214 23714 ft 469 kts 82°
2026-05-06 09:32 50.01460 10.14243 24107 ft 474 kts 82°
2026-05-06 09:32 50.01994 10.19284 24471 ft 478 kts 82°
2026-05-06 09:32 50.02533 10.24406 24826 ft 482 kts 82°
2026-05-06 09:32 50.03074 10.29570 25253 ft 485 kts 82°
2026-05-06 09:33 50.03613 10.34733 25610 ft 489 kts 82°
2026-05-06 09:33 50.04159 10.39987 25950 ft 493 kts 82°
2026-05-06 09:33 50.04704 10.45258 26343 ft 496 kts 82°
2026-05-06 09:33 50.05250 10.50557 26714 ft 499 kts 82°
2026-05-06 09:34 50.05793 10.55858 27071 ft 502 kts 82°
2026-05-06 09:34 50.06343 10.61235 27416 ft 505 kts 82°
2026-05-06 09:34 50.06822 10.66626 27747 ft 507 kts 88°
2026-05-06 09:34 50.06855 10.72137 28006 ft 508 kts 97°
2026-05-06 09:35 50.06380 10.77505 28266 ft 508 kts 105°
2026-05-06 09:35 50.05434 10.82793 28605 ft 508 kts 111°
2026-05-06 09:35 50.04335 10.88053 29088 ft 507 kts 112°
2026-05-06 09:35 50.03248 10.93196 29666 ft 505 kts 112°
2026-05-06 09:36 50.02152 10.98363 30281 ft 502 kts 112°
2026-05-06 09:36 50.01049 11.03547 30756 ft 501 kts 113°
2026-05-06 09:36 49.99936 11.08764 30796 ft 504 kts 112°
2026-05-06 09:37 49.97734 11.19068 30809 ft 501 kts 113°
2026-05-06 09:37 49.95536 11.29374 30803 ft 501 kts 112°
2026-05-06 09:38 49.93348 11.39683 30803 ft 500 kts 112°
2026-05-06 09:38 49.91342 11.50110 30799 ft 504 kts 110°
2026-05-06 09:39 49.89454 11.60518 30797 ft 503 kts 110°
2026-05-06 09:39 49.87841 11.71084 30789 ft 508 kts 103°
2026-05-06 09:40 49.86887 11.81928 30788 ft 510 kts 102°
2026-05-06 09:40 49.85442 11.98273 30796 ft 510 kts 103°
2026-05-06 09:41 49.84475 12.09055 30796 ft 508 kts 103°
2026-05-06 09:41 49.83488 12.19915 30806 ft 511 kts 103°
2026-05-06 09:42 49.82489 12.30819 30805 ft 510 kts 103°
2026-05-06 09:42 49.81487 12.41686 30808 ft 514 kts 103°
2026-05-06 09:43 49.79841 12.52391 30807 ft 510 kts 112°
2026-05-06 09:43 49.77748 12.62873 30815 ft 509 kts 112°
2026-05-06 09:44 49.75665 12.73246 30798 ft 507 kts 113°
2026-05-06 09:44 49.73563 12.83654 30807 ft 510 kts 113°
2026-05-06 09:45 49.71443 12.94104 30806 ft 510 kts 113°
2026-05-06 09:45 49.69315 13.04545 30813 ft 511 kts 113°
2026-05-06 09:46 49.67176 13.14979 30810 ft 511 kts 113°
2026-05-06 09:46 49.65022 13.25438 30815 ft 513 kts 113°
2026-05-06 09:47 49.62857 13.35905 30817 ft 511 kts 113°
2026-05-06 09:47 49.60684 13.46340 30815 ft 511 kts 113°
2026-05-06 09:48 49.58505 13.56752 30820 ft 513 kts 113°
2026-05-06 09:48 49.56312 13.67181 30809 ft 511 kts 114°
2026-05-06 09:49 49.54109 13.77598 30814 ft 512 kts 114°
2026-05-06 09:49 49.51904 13.87974 30791 ft 512 kts 114°
2026-05-06 09:50 49.49682 13.98380 30788 ft 511 kts 114°
2026-05-06 09:50 49.47463 14.08715 30793 ft 511 kts 114°
2026-05-06 09:51 49.45238 14.19034 30790 ft 511 kts 113°
2026-05-06 09:51 49.42995 14.29381 30798 ft 512 kts 113°
2026-05-06 09:52 49.40746 14.39697 30797 ft 510 kts 113°
2026-05-06 09:52 49.38488 14.50005 30809 ft 510 kts 113°
2026-05-06 09:53 49.36215 14.60328 30810 ft 511 kts 113°
2026-05-06 09:53 49.33936 14.70628 30800 ft 511 kts 114°
2026-05-06 09:54 49.31656 14.80896 30801 ft 511 kts 114°
2026-05-06 09:54 49.29352 14.91213 30811 ft 510 kts 114°
2026-05-06 09:55 49.27061 15.01420 30811 ft 510 kts 113°
2026-05-06 09:55 49.24743 15.11696 30809 ft 511 kts 113°
2026-05-06 09:56 49.22418 15.21958 30822 ft 509 kts 113°
2026-05-06 09:56 49.20092 15.32169 30826 ft 510 kts 113°
2026-05-06 09:57 49.17769 15.42325 30826 ft 506 kts 113°
2026-05-06 09:57 49.15418 15.52545 30829 ft 509 kts 113°
2026-05-06 09:58 49.13070 15.62705 30834 ft 509 kts 113°
2026-05-06 09:58 49.10710 15.72873 30831 ft 507 kts 114°
2026-05-06 09:59 49.08355 15.82966 30832 ft 508 kts 114°
2026-05-06 09:59 49.05982 15.93091 30830 ft 507 kts 114°
2026-05-06 10:00 49.03597 16.03221 30835 ft 507 kts 114°
2026-05-06 10:00 49.01204 16.13333 30833 ft 507 kts 114°
2026-05-06 10:01 48.98803 16.23429 30828 ft 507 kts 114°
2026-05-06 10:01 48.96405 16.33473 30827 ft 506 kts 114°
2026-05-06 10:02 48.94004 16.43480 30817 ft 508 kts 114°
2026-05-06 10:02 48.91564 16.53603 30813 ft 508 kts 114°
2026-05-06 10:03 48.89144 16.63601 30825 ft 508 kts 113°
2026-05-06 10:03 48.86702 16.73643 30823 ft 508 kts 114°
2026-05-06 10:04 48.85058 16.80381 30829 ft 508 kts 114°